RH
80 75 73 72 71 68 64 63 63 62 62 62 61 59 56 55 54 56 57 82 78 71 67 61 60 61 65 70 69 73 73 74 75 71 70 67 64 62 62 63 61 63 62
74 75 77 75 73 69 66 64 67 70 66 65 60 58 58 58 57 60 60 60 83 80 76 72 65 61 60 61 64 65 68 71 72 77 75 73 70 66 63 62 62 62 61
74 73 74 75 71 68 64 71 70 67 66 64 61 59 59 57 60 60 58 59 61 86 81 74 72 66 62 61 63 62 69 76 77 77 77 76 75 72 68 66 64 64 61
73 72 74 73 70 70 69 67 66 65 64 64 61 59 58 57 56 57 58 59 62 61 74 77 76 74 65 64 61 63 75 72 72 75 75 77 78 77 74 70 68 65 64
69 69 70 68 64 65 68 66 63 62 65 65 65 60 65 60 60 60 58 64 64 64 63 80 84 81 76 66 68 71 68 69 70 70 71 72 75 76 79 76 72 69 66
68 68 66 64 63 65 64 62 60 64 63 71 77 76 61 60 60 62 62 63 63 69 66 68 65 69 84 76 70 68 68 68 67 65 65 68 69 68 71 75 78 74 70
78 80 72 67 68 71 64 62 63 73 84 84 83 64 62 59 62 59 58 62 66 67 66 69 68 67 70 78 74 71 68 66 66 68 64 61 64 63 64 66 68 80 73
89 79 74 78 77 74 73 79 78 83 80 78 83 81 69 59 59 63 57 61 63 62 66 68 66 65 70 75 73 71 67 64 62 63 64 66 62 62 61 61 63 69 74
92 86 82 85 86 87 85 86 87 86 84 91 85 82 75 71 74 64 65 59 60 59 61 67 64 65 66 66 66 70 73 71 64 64 62 62 63 60 64 66 65 69 71
98 96 94 94 92 93 94 93 92 93 92 86 85 83 84 81 80 68 66 65 62 60 64 64 64 66 72 74 76 79 75 72 66 63 66 69 69 69 66 64 65 69 71
97 98 99 97 97 95 96 92 80 80 88 86 81 80 82 85 81 90 78 72 70 67 66 66 68 62 70 70 70 75 74 70 66 66 69 69 69 70 74 70 69 68 68
98 97 99 99 99 98 96 94 89 87 87 84 80 82 77 75 81 90 90 79 81 71 69 69 75 76 76 70 74 82 76 72 70 66 66 71 71 76 80 76 64 68 65
98 98 97 95 96 95 93 90 91 91 92 89 84 85 86 86 79 82 83 78 79 73 73 71 75 79 71 72 73 81 81 77 73 67 67 73 75 80 82 77 76 80 78
93 94 96 96 97 97 97 94 93 91 89 91 90 92 88 86 88 89 88 86 86 80 78 75 78 76 77 73 85 83 81 79 74 72 73 75 75 80 81 81 78 80 82
94 94 94 96 94 93 92 89 86 84 87 88 89 89 88 88 88 89 94 92 89 83 86 85 87 85 83 81 86 77 81 80 75 74 75 75 76 76 80 81 79 80 84
91 94 89 90 85 83 81 84 86 83 85 89 88 89 90 88 86 86 90 90 91 96 93 91 91 92 88 86 88 83 87 88 76 70 71 71 73 74 77 79 81 80 82
81 82 79 80 82 82 80 81 79 78 79 83 85 88 86 83 85 86 87 87 90 94 99 98 96 93 94 91 92 87 83 83 82 67 68 64 70 71 74 76 78 80 80
74 72 74 73 72 77 77 75 77 77 76 78 80 88 87 85 84 85 86 88 91 92 96 98 98 100 97 91 89 86 82 74 69 61 59 58 61 68 71 72 74 77 78
73 71 70 73 76 74 73 72 73 74 77 80 82 84 83 84 85 87 87 92 93 92 96 97 100 96 96 91 94 92 84 76 53 60 62 64 62 58 64 65 69 71 74
74 73 71 72 74 75 77 79 79 77 78 79 80 80 79 84 85 87 94 96 94 95 94 96 98 98 95 91 90 88 78 72 61 46 52 57 58 62 59 59 55 57 60
75 74 76 77 77 77 76 79 79 78 79 80 82 82 84 86 90 88 92 94 94 94 96 100 98 95 95 91 88 77 79 64 59 59 53 49 46 48 55 59 59 58 58
79 78 78 78 81 77 82 83 82 82 84 85 85 83 85 91 87 86 86 86 87 93 96 97 97 93 90 85 77 75 72 68 68 61 54 47 51 51 53 57 56 59 58
84 84 82 80 79 78 81 81 83 84 85 89 91 90 89 90 92 90 85 84 83 82 80 85 90 87 82 76 79 81 71 65 52 61 55 45 52 51 54 50 71 63 64
85 84 83 83 83 81 83 83 84 87 90 91 93 92 91 90 89 83 80 80 71 66 63 62 74 75 71 72 69 72 67 65 63 59 55 58 55 54 56 63 65 64 63
91 97 88 89 92 92 85 81 91 95 95 93 88 87 84 83 85 84 78 81 65 69 67 69 68 70 73 72 68 64 71 71 63 57 60 53 60 57 60 65 67 71 64
94 92 100 96 91 98 86 83 92 88 92 89 88 86 84 76 80 80 72 65 64 64 69 67 67 66 70 71 71 64 77 85 73 73 62 72 64 61 72 62 64 62 67
Wind_Speed
5 5 4 4 3 3 3 3 3 3 3 3 3 4 4 4 4 2 3 6 8 6 9 8 8 7 6 4 3 4 6 7 8 7 5 4 4 3 2 1 1 3 5
6 6 5 5 5 5 4 4 3 3 3 3 3 4 4 4 5 5 3 4 8 7 6 8 9 9 6 3 3 4 5 5 5 10 9 9 7 6 5 3 2 1 2
7 7 5 5 5 4 6 5 5 4 3 3 5 4 4 5 5 5 4 3 2 3 5 5 6 8 5 2 3 4 5 5 7 7 6 12 11 9 8 7 6 5 2
9 7 6 6 5 5 5 5 4 4 4 4 4 4 4 4 5 5 4 4 4 3 3 2 5 7 4 4 3 4 6 5 6 8 9 9 8 13 11 8 7 7 5
10 9 7 7 6 5 6 5 5 5 4 4 5 5 3 4 4 3 5 5 5 5 4 3 5 5 7 6 7 6 4 5 5 6 7 7 7 3 12 12 10 9 8
11 9 8 8 7 6 5 5 7 6 4 3 3 3 3 3 3 3 5 5 5 4 2 2 4 6 10 9 8 6 5 5 4 5 6 7 7 6 6 6 14 13 11
11 9 7 7 7 8 9 9 6 6 4 3 2 1 2 4 2 1 2 3 2 1 3 4 4 4 6 11 9 7 5 5 5 6 6 5 6 7 6 6 4 13 14
10 11 10 9 9 8 9 8 8 4 3 3 2 1 3 3 2 2 2 2 3 2 4 4 5 5 5 4 6 7 6 5 5 6 5 6 7 6 7 7 6 5 9
6 10 11 8 8 6 7 7 6 6 4 2 2 2 2 2 2 1 2 2 2 2 3 4 5 5 5 3 3 4 5 4 6 7 6 5 6 7 8 8 7 6 6
1 3 5 4 5 4 4 3 3 2 1 2 1 2 1 2 3 3 1 1 0 2 3 3 4 3 4 2 4 4 3 4 6 7 7 8 8 8 10 12 12 12 7
5 5 2 0 2 3 3 4 4 4 1 2 3 3 2 2 4 5 5 2 2 1 2 2 3 3 3 2 3 3 4 5 5 7 9 9 10 11 14 11 9 13 13
4 4 6 4 4 4 5 4 4 6 4 2 3 4 3 2 3 5 6 8 6 4 4 4 4 3 3 3 3 5 6 6 6 6 7 8 9 11 16 12 5 5 7
4 7 6 5 3 2 1 2 2 2 3 3 5 3 2 4 4 5 5 7 7 3 3 4 4 4 5 4 3 3 6 6 6 4 5 6 8 11 14 13 13 16 12
6 9 9 7 7 7 3 2 2 3 4 3 3 3 3 3 4 4 5 5 5 5 4 4 3 3 3 4 5 5 3 4 5 5 6 6 5 10 12 14 13 14 16
4 7 7 8 6 8 7 6 4 4 3 3 3 3 3 3 4 4 4 6 7 6 5 5 4 4 4 4 4 3 3 2 4 4 5 4 5 8 10 11 10 11 15
6 6 6 7 8 7 7 5 3 3 3 2 2 4 3 3 4 3 4 5 6 5 6 2 3 3 5 4 4 2 2 2 2 2 1 2 3 4 7 9 10 10 13
7 8 8 7 6 7 5 5 5 4 3 3 4 4 5 5 4 3 3 3 4 2 3 1 1 1 3 6 4 2 1 1 0 1 3 2 3 3 6 8 9 9 11
6 9 8 9 7 5 5 5 5 4 4 4 3 4 5 3 5 4 4 5 3 2 2 3 2 1 1 3 3 3 2 2 1 3 4 4 5 4 4 5 6 8 9
5 6 7 7 6 6 6 5 5 5 4 3 1 3 5 5 6 4 5 4 2 1 1 2 3 1 1 2 2 3 1 1 1 5 5 5 6 5 4 5 6 8 8
6 6 6 7 7 7 5 5 4 4 3 1 2 3 4 5 6 5 4 4 3 3 2 1 2 2 2 2 1 2 3 1 3 1 2 4 4 5 3 5 5 5 5
6 7 7 6 6 6 5 6 5 4 4 3 2 1 3 3 4 4 3 3 3 3 2 2 2 2 2 3 4 2 2 3 2 0 0 1 1 2 2 3 3 4 4
6 6 6 6 6 3 8 10 7 4 3 4 4 4 2 2 1 3 3 3 3 3 3 3 2 3 3 3 3 3 3 3 3 2 2 2 0 2 2 1 2 2 2
6 7 8 8 8 8 10 9 9 6 4 4 3 3 2 1 3 4 7 7 6 4 1 3 3 3 3 5 6 4 4 3 2 3 3 3 1 2 0 1 3 3 5
9 8 8 7 7 6 9 7 7 5 4 4 4 4 5 4 4 5 4 3 2 1 1 0 2 3 2 5 5 4 4 4 3 2 2 2 2 2 0 1 1 6 5
6 5 4 7 6 5 9 7 6 4 4 5 4 5 5 5 6 7 4 4 3 2 3 5 4 6 8 9 7 6 5 4 2 3 3 2 2 2 1 2 3 5 2
5 6 5 5 9 6 12 13 9 4 5 4 4 4 9 7 9 10 5 5 5 5 4 4 4 5 5 6 8 1 5 3 2 2 3 3 3 2 3 2 2 0 1
Wind_Direction
182 179 184 186 191 189 202 194 202 204 214 220 226 243 253 255 257 261 270 255 262 259 264 259 267 267 275 237 237 249 252 276 255 241 224 227 201 171 160 341 0 60 42
189 194 192 196 198 199 192 201 205 218 236 241 242 233 249 257 261 253 250 253 240 254 269 274 266 266 280 305 39 55 49 24 332 252 233 225 229 221 199 195 226 197 70
203 205 204 209 206 197 199 196 198 214 233 228 242 237 251 257 265 269 291 304 277 222 264 293 271 256 259 287 37 37 56 44 16 3 329 247 221 229 226 206 202 209 180
215 213 209 211 204 203 205 205 204 213 220 225 233 236 239 245 259 268 264 258 265 271 254 266 268 258 176 132 95 84 83 39 22 15 22 24 258 227 228 225 213 219 207
226 211 213 213 194 202 207 207 205 211 212 214 233 245 244 249 259 268 284 277 264 264 264 242 244 153 124 123 105 99 78 48 29 29 24 5 10 303 247 227 219 217 213
237 219 216 214 195 196 202 201 214 203 214 224 227 247 272 279 290 301 300 295 292 290 261 156 134 122 111 108 99 83 62 35 10 350 354 353 357 359 334 328 227 215 216
215 206 213 209 200 198 203 205 207 206 208 210 221 280 277 293 329 43 341 325 341 27 117 123 126 123 94 90 92 88 69 40 12 356 329 324 322 323 326 330 336 235 215
225 211 203 196 196 204 206 203 201 179 185 174 129 254 291 278 55 40 30 42 76 119 125 109 110 106 99 96 95 83 64 41 10 349 328 310 300 295 302 305 303 292 231
240 241 220 193 188 196 207 199 199 195 183 168 177 196 267 248 319 109 48 43 105 126 125 131 129 119 115 113 117 87 69 29 2 2 340 322 302 297 310 307 308 295 271
250 297 268 232 187 177 169 146 159 128 289 169 169 257 198 220 260 293 154 118 97 170 163 159 138 133 126 130 100 72 42 6 8 33 35 31 16 1 333 309 293 285 282
172 135 90 55 163 136 149 166 127 114 93 190 206 191 160 195 226 239 278 222 207 200 183 191 158 165 143 139 91 37 27 23 24 19 39 19 6 356 335 314 287 258 260
169 134 130 152 185 159 161 174 175 153 171 176 220 208 196 176 177 210 235 263 254 203 193 181 175 163 167 145 101 50 43 37 17 6 20 25 12 358 342 17 13 342 264
180 154 142 156 158 94 24 123 134 131 139 195 214 233 208 225 229 239 255 260 260 216 201 214 204 172 181 159 129 78 56 57 33 15 25 37 28 4 357 14 29 27 19
191 161 155 169 164 136 155 183 142 155 171 187 198 219 245 235 224 225 243 249 265 244 209 246 206 207 187 168 138 111 82 61 73 46 46 36 11 14 7 17 30 29 15
154 169 174 167 153 134 162 170 166 158 177 187 195 208 224 238 239 235 225 239 250 268 241 192 201 192 181 162 141 128 104 57 89 54 38 23 20 25 17 22 27 29 23
153 144 156 139 151 146 154 146 129 142 167 182 225 215 215 245 248 238 240 251 249 252 261 128 182 168 177 150 141 112 106 104 77 107 122 10 18 40 42 29 31 33 32
147 145 147 140 141 135 148 134 144 161 181 212 220 231 238 232 238 239 225 234 245 222 250 139 100 124 160 159 124 98 79 93 105 105 114 83 40 54 48 34 35 37 41
159 151 149 145 148 143 151 148 157 167 179 211 227 234 246 244 234 229 227 232 229 197 196 157 133 144 149 141 135 128 114 106 165 127 113 100 76 61 65 54 49 45 48
136 134 140 140 140 158 159 158 160 170 181 185 248 278 265 251 241 216 220 210 203 171 169 146 150 136 125 150 122 108 123 134 80 71 78 56 67 57 76 69 55 49 47
151 148 151 153 158 166 156 155 160 165 153 163 210 243 268 263 250 229 209 202 178 175 175 148 155 152 146 137 119 144 172 185 161 77 52 54 66 53 82 81 54 45 42
167 163 157 153 148 163 169 173 176 168 174 187 200 269 266 264 250 218 195 197 179 188 162 179 177 152 154 150 186 157 144 160 123 143 193 16 48 77 60 60 49 57 46
174 168 171 164 167 171 182 181 167 157 166 194 201 199 212 206 182 157 148 167 189 189 194 188 171 185 166 142 143 159 145 176 208 179 202 167 3 119 93 49 28 62 93
177 183 181 181 187 187 186 182 176 172 169 192 184 180 169 72 103 94 92 91 84 78 140 176 184 190 169 176 148 160 176 174 172 134 203 166 135 144 104 320 310 108 122
192 185 190 192 185 191 188 183 182 160 158 186 181 186 174 155 142 130 123 108 81 46 11 236 224 169 154 155 170 159 157 121 105 134 214 177 151 158 106 55 173 128 119
196 189 189 189 190 192 181 192 150 155 176 190 182 171 163 160 182 167 157 158 149 99 79 98 111 111 133 144 140 133 143 163 174 170 192 179 156 142 146 147 58 55 137
183 183 195 196 198 190 198 185 171 178 189 184 180 174 186 180 191 184 179 180 188 184 155 116 99 79 101 144 145 149 156 164 148 168 179 183 150 170 165 170 179 110 93